Location: A�t �Alizem
(31.2076°N, 8.7872°W)
Time: 06:16:25
(UTC+00:00)

Cosmos 389 Rocket - Pass Details

Date: 27 November 2020
Orbit: 442 x 473 km, 81.1° (Epoch: 25 January)

Event Time Altitude Azimuth Distance (km) Brightness Sun altitude
Rises 18:07:39 0° 202° (SSW) 2,437 6.8 -7.7°
Reaches altitude 10° 18:09:49 10° 211° (SSW) 1,565 6.0 -8.2°
Maximum altitude 18:13:00 37° 280° (W) 711 4.0 -8.8°
Drops below altitude 10° 18:16:11 10° 349° (N) 1,565 5.1 -9.5°
Sets 18:18:21 0° 358° (N) 2,437 5.9 -9.9°
